カタログに戻る

EKRAN 14

運用中通信GEO
NORAD 15626·PAYLOAD·🇷🇺 Russia

打ち上げ Mar 22, 1985 から Baikonur Cosmodrome

Loading…

TLE

最新Source: Space-Track

元期: Sep 14, 2026, 08:42 UTC

1 15626U 85024A   26257.36251841 -.00000138  00000-0  00000-0 0  9994
2 15626  11.7994 320.6426 0019053 357.5420 171.9452  0.94798249123120

AllMySatでEKRAN 14をリアルタイム追跡

Download on the App Store